Wetbulb
63.85 63.91 63.91 64.24 64.53 65.51 66.14 69.35 71.24 71.22 71.40 71.51 71.29 71.28 71.00 70.40 66.23 63.85 63.15 63.45 66.13 68.29 69.18 69.62 69.78 69.47 69.17 68.69 68.34 67.74 67.41 66.98 66.59
62.17 62.60 62.70 63.12 63.81 65.81 67.60 67.26 68.59 71.04 70.94 70.64 70.96 71.58 70.32 68.47 65.69 63.66 62.32 61.74 67.22 68.54 69.32 69.63 69.28 69.19 68.87 68.24 67.96 67.24 66.82 66.23 66.44
60.48 60.70 61.20 62.38 62.95 63.73 64.83 66.71 68.31 69.02 69.83 70.35 70.95 70.66 69.23 67.34 65.61 63.88 61.75 62.76 66.60 68.92 69.84 69.86 69.23 68.73 68.30 67.96 67.42 67.15 66.60 67.05 66.68
58.73 58.74 59.58 60.75 61.47 62.02 62.41 63.22 63.84 64.09 65.29 68.05 70.24 69.71 68.73 66.85 66.20 65.20 62.45 64.19 66.85 69.21 69.83 70.11 69.66 68.96 68.30 68.19 67.32 67.09 66.75 67.40 66.91
55.99 56.54 57.80 58.78 59.25 59.84 60.15 60.93 61.49 61.70 61.65 63.43 67.16 68.57 67.91 66.81 65.81 65.37 63.98 66.61 67.65 68.39 69.87 70.77 70.12 69.48 68.68 68.75 67.90 67.44 66.95 66.67 66.77
50.59 54.46 56.81 57.52 57.86 57.99 58.44 58.76 58.97 58.61 58.14 59.90 61.19 65.15 66.06 65.80 66.08 66.25 66.82 68.36 69.22 68.70 69.04 70.54 70.53 69.90 69.57 69.29 67.70 67.36 67.04 67.29 66.73
51.93 51.63 55.09 55.46 56.04 55.75 57.10 57.02 56.40 54.73 53.28 54.50 57.29 58.87 61.32 65.40 66.70 66.68 67.97 69.21 70.34 69.91 69.32 70.20 70.58 70.55 69.80 69.71 68.88 67.50 67.33 67.03 67.05
47.76 47.70 48.37 48.17 51.96 48.82 50.10 49.60 50.20 49.77 51.18 52.17 52.52 55.09 57.39 61.49 65.41 67.03 67.84 69.05 69.97 70.08 69.87 69.96 70.23 70.35 70.24 69.65 69.44 68.96 67.59 67.56 66.96
47.25 47.68 48.24 48.29 48.42 47.77 48.11 48.46 49.03 49.74 50.16 50.32 51.78 53.15 54.78 57.59 60.88 64.47 66.14 67.80 68.64 69.41 69.51 69.61 69.96 70.26 69.89 69.51 69.72 69.47 68.64 67.37 66.59
47.64 48.07 48.76 49.12 49.15 48.74 48.42 48.26 48.99 49.25 50.04 51.01 51.54 52.45 53.06 54.55 57.61 60.35 63.48 65.89 66.89 68.07 68.95 69.29 69.63 69.46 69.72 69.90 69.87 69.55 69.47 68.66 68.16
48.37 48.67 49.48 49.41 49.47 50.00 49.46 49.20 49.07 49.32 49.76 50.47 51.36 51.85 52.82 53.97 55.19 57.55 61.09 64.00 65.73 65.92 67.95 69.05 69.16 69.70 69.63 70.12 69.99 69.66 69.57 69.30 69.10
48.29 48.86 49.04 49.37 50.00 50.12 50.00 49.57 49.58 49.40 50.71 49.98 51.22 51.68 52.19 53.22 54.13 56.47 59.48 61.50 63.12 64.90 66.23 68.27 68.62 68.86 69.49 69.81 69.82 69.74 69.48 69.47 69.37
48.33 49.12 48.70 49.49 49.71 49.55 49.08 51.30 51.92 51.83 51.49 50.48 50.74 50.95 51.77 52.40 53.41 55.16 56.79 58.50 60.40 63.20 65.02 65.96 67.85 68.39 68.86 69.41 69.47 69.78 69.32 69.08 69.29
48.57 49.17 48.57 49.11 49.21 49.09 51.13 52.05 52.19 51.77 52.29 52.15 51.75 51.36 51.09 51.46 53.09 53.76 55.35 57.00 58.37 61.15 63.68 63.86 64.60 66.05 67.45 68.17 69.18 68.96 69.63 68.99 69.01
48.77 48.77 48.10 48.89 48.99 49.30 50.99 51.81 51.68 52.82 52.60 51.95 51.10 50.21 50.15 50.50 51.15 52.82 54.99 56.15 57.96 59.94 62.34 62.05 62.12 63.33 65.65 66.27 66.93 67.47 67.91 68.64 68.76
48.30 47.98 47.40 48.05 47.85 48.54 50.28 51.11 50.09 50.69 53.12 51.39 50.27 47.61 49.33 51.65 53.18 55.88 57.10 58.12 58.68 59.77 61.24 63.99 63.63 63.37 64.44 65.46 65.55 65.74 65.24 62.99 66.69
48.67 47.13 46.55 46.41 46.79 47.44 47.80 47.85 49.49 50.27 52.38 50.94 45.83 43.48 46.83 50.03 53.52 55.78 58.09 58.91 60.02 60.20 62.28 63.21 62.45 60.56 60.03 59.96 62.50 63.68 63.17 64.12 66.88
47.68 47.17 46.61 45.66 45.84 45.56 45.80 46.21 46.74 48.69 50.82 52.49 50.12 43.74 42.50 47.99 51.20 54.10 57.52 57.35 58.35 58.94 58.29 57.88 57.62 58.42 58.94 59.72 60.29 61.57 63.09 64.56 67.46
47.02 47.13 46.74 45.73 45.16 44.24 44.05 46.59 45.18 46.27 47.22 50.73 52.51 51.06 49.73 48.02 48.48 53.44 56.49 57.34 57.19 57.08 56.88 56.16 55.67 56.19 56.94 57.49 57.96 59.88 62.35 63.97 64.60
46.11 46.42 45.82 45.35 44.87 43.75 43.07 43.07 43.10 44.94 45.40 45.90 48.91 51.75 52.09 52.31 50.02 47.72 51.58 55.77 55.93 55.59 54.80 54.06 53.09 52.84 53.49 54.11 55.54 57.90 60.14 61.81 62.04
MSLP
1016.20 1016.04 1015.89 1015.71 1015.55 1015.33 1015.14 1014.94 1014.90 1014.87 1014.93 1014.94 1014.90 1014.85 1015.05 1015.20 1015.54 1015.78 1015.89 1016.07 1016.08 1015.92 1015.89 1016.00 1016.23 1016.40 1016.60 1016.72 1016.83 1017.04 1017.13 1017.28 1017.34
1016.35 1016.15 1015.98 1015.76 1015.55 1015.30 1014.98 1014.81 1014.69 1014.55 1014.53 1014.56 1014.48 1014.46 1014.65 1014.90 1015.23 1015.48 1015.68 1015.73 1015.64 1015.69 1015.72 1015.73 1015.90 1016.14 1016.37 1016.56 1016.75 1016.88 1017.01 1017.18 1017.37
1016.49 1016.32 1016.08 1015.84 1015.65 1015.37 1015.12 1014.89 1014.69 1014.53 1014.33 1014.24 1014.22 1014.25 1014.35 1014.62 1014.83 1014.98 1015.18 1015.25 1015.30 1015.24 1015.22 1015.32 1015.59 1015.81 1016.04 1016.26 1016.49 1016.62 1016.79 1017.09 1017.29
1016.70 1016.53 1016.26 1015.98 1015.79 1015.55 1015.31 1015.07 1014.84 1014.63 1014.40 1014.19 1013.95 1013.94 1014.00 1014.20 1014.37 1014.55 1014.80 1014.81 1014.73 1014.69 1014.71 1014.77 1015.07 1015.42 1015.69 1015.86 1016.09 1016.33 1016.59 1016.84 1017.08
1017.00 1016.76 1016.43 1016.14 1015.89 1015.68 1015.45 1015.23 1015.02 1014.85 1014.61 1014.27 1013.89 1013.59 1013.59 1013.70 1013.83 1013.92 1014.00 1014.11 1014.23 1014.23 1014.14 1014.22 1014.58 1014.82 1015.15 1015.43 1015.68 1016.03 1016.25 1016.53 1016.76
1017.29 1017.01 1016.62 1016.32 1016.06 1015.87 1015.57 1015.34 1015.09 1014.91 1014.76 1014.44 1014.12 1013.76 1013.55 1013.45 1013.41 1013.40 1013.36 1013.43 1013.47 1013.54 1013.66 1013.74 1013.87 1014.24 1014.54 1014.89 1015.21 1015.51 1015.82 1016.15 1016.41
1017.36 1017.17 1016.80 1016.56 1016.25 1016.05 1015.70 1015.48 1015.23 1015.04 1014.80 1014.51 1014.18 1013.93 1013.61 1013.27 1012.90 1012.78 1012.77 1012.75 1012.83 1012.74 1012.88 1013.07 1013.39 1013.57 1013.98 1014.28 1014.66 1014.97 1015.31 1015.61 1015.96
1017.56 1017.31 1017.06 1016.75 1016.35 1016.19 1015.84 1015.60 1015.37 1015.16 1014.90 1014.65 1014.40 1014.07 1013.74 1013.33 1012.77 1012.33 1012.19 1012.07 1012.01 1012.10 1012.17 1012.37 1012.63 1012.97 1013.20 1013.61 1013.98 1014.31 1014.71 1015.08 1015.37
1017.71 1017.43 1017.14 1016.84 1016.48 1016.20 1015.96 1015.72 1015.37 1015.03 1014.76 1014.53 1014.25 1013.89 1013.58 1013.19 1012.75 1012.24 1011.77 1011.53 1011.50 1011.40 1011.49 1011.67 1011.89 1012.14 1012.53 1012.80 1013.25 1013.64 1014.04 1014.46 1014.83
1017.74 1017.41 1017.15 1016.79 1016.43 1016.17 1015.88 1015.62 1015.32 1015.03 1014.65 1014.24 1013.98 1013.61 1013.22 1012.81 1012.39 1011.94 1011.44 1011.07 1010.82 1010.80 1010.78 1010.90 1011.15 1011.31 1011.63 1012.03 1012.40 1012.88 1013.30 1013.77 1014.21
1017.79 1017.51 1017.23 1016.86 1016.53 1016.23 1016.02 1015.74 1015.43 1014.98 1014.49 1014.08 1013.58 1013.21 1012.77 1012.34 1011.89 1011.43 1010.98 1010.55 1010.30 1010.29 1010.16 1009.98 1010.29 1010.56 1010.64 1010.93 1011.58 1012.02 1012.53 1012.98 1013.44
1017.88 1017.67 1017.39 1016.96 1016.62 1016.29 1016.00 1015.65 1015.20 1014.91 1014.41 1013.83 1013.22 1012.76 1012.23 1011.82 1011.41 1010.93 1010.56 1010.07 1009.77 1009.67 1009.59 1009.39 1009.42 1009.54 1009.93 1009.91 1010.69 1011.47 1011.81 1012.29 1012.73
1017.86 1017.69 1017.45 1016.98 1016.66 1016.29 1015.93 1015.52 1015.12 1014.83 1014.35 1013.78 1013.05 1012.48 1011.87 1011.36 1010.83 1010.43 1010.10 1009.69 1009.50 1009.31 1008.89 1008.98 1008.77 1008.48 1008.84 1009.41 1010.17 1010.79 1011.24 1011.62 1012.06
1017.90 1017.69 1017.36 1016.98 1016.67 1016.24 1015.79 1015.41 1015.04 1014.51 1013.98 1013.48 1012.68 1011.99 1011.51 1010.98 1010.56 1010.11 1009.65 1009.30 1009.16 1008.98 1008.48 1008.26 1008.70 1008.19 1008.44 1009.16 1009.51 1009.90 1010.55 1010.60 1011.12
1017.82 1017.60 1017.32 1016.97 1016.67 1016.13 1015.62 1015.30 1014.99 1014.59 1013.92 1013.26 1012.35 1011.61 1011.10 1010.54 1010.03 1009.66 1009.44 1009.22 1008.98 1008.63 1008.00 1007.78 1007.75 1007.86 1008.39 1008.65 1008.54 1009.72 1009.10 1010.02 1010.65
1017.67 1017.51 1017.31 1017.02 1016.78 1016.35 1015.98 1015.54 1015.07 1014.36 1013.83 1013.22 1011.96 1011.23 1010.76 1010.42 1009.81 1009.32 1009.08 1008.91 1008.59 1008.31 1007.84 1007.78 1008.04 1007.98 1007.79 1007.98 1008.11 1008.61 1010.16 1009.55 1009.58
1017.44 1017.40 1017.31 1017.09 1016.77 1016.43 1016.15 1015.92 1015.53 1014.78 1014.24 1013.75 1013.35 1012.59 1011.37 1010.45 1009.87 1009.24 1008.85 1008.83 1008.47 1008.36 1008.04 1008.08 1008.47 1008.60 1008.59 1008.56 1008.76 1008.72 1008.40 1008.74 1009.48
1017.33 1017.25 1017.15 1016.99 1016.80 1016.62 1016.43 1016.22 1016.03 1015.44 1014.57 1014.08 1013.91 1013.32 1012.87 1011.72 1010.17 1009.83 1009.31 1009.13 1009.07 1009.03 1008.85 1009.03 1009.09 1009.19 1009.39 1009.29 1009.17 1009.14 1007.47 1007.96 1009.14
1017.07 1016.91 1016.78 1016.70 1016.61 1016.55 1016.47 1016.24 1016.14 1015.84 1015.14 1014.22 1013.77 1013.51 1013.27 1012.76 1011.43 1010.38 1010.11 1009.67 1009.67 1009.68 1009.62 1009.78 1009.80 1009.62 1009.70 1009.67 1009.80 1009.04 1008.74 1009.20 1009.71
1016.72 1016.62 1016.51 1016.48 1016.41 1016.33 1016.21 1016.03 1016.00 1015.82 1015.51 1015.22 1014.58 1013.72 1013.01 1012.58 1012.37 1011.58 1010.98 1010.62 1010.55 1010.47 1010.63 1010.70 1010.58 1010.57 1010.52 1010.36 1010.33 1009.97 1010.10 1010.62 1010.96
Wind_Speed
13 13 12 12 13 13 13 12 12 12 12 11 13 13 13 10 6 5 7 6 9 10 11 11 9 8 8 8 9 8 8 8 8
13 13 13 12 12 14 12 12 12 11 11 13 13 13 12 7 6 6 6 6 13 14 14 13 13 12 11 10 10 10 9 9 8
12 12 12 12 12 13 14 13 12 13 12 13 13 10 10 6 6 7 6 11 15 15 16 15 14 13 13 13 12 12 11 9 9
12 12 13 12 13 12 12 12 12 12 12 12 12 10 10 6 6 7 5 14 17 16 17 17 16 15 14 14 13 13 11 11 11
12 12 12 13 13 13 13 13 14 14 15 15 13 10 11 6 7 6 6 17 18 18 18 18 18 17 16 15 15 14 13 13 12
7 11 13 14 13 14 14 14 13 13 13 14 15 12 3 5 5 5 14 19 21 21 20 19 19 19 18 16 17 16 15 14 14
7 8 12 13 13 13 13 13 13 10 4 4 9 3 5 5 7 6 17 22 23 23 21 19 19 20 19 18 19 18 17 16 16
4 3 4 4 8 4 6 6 4 6 4 4 5 5 5 4 6 8 16 22 24 25 25 22 20 20 20 20 21 19 19 18 17
4 3 4 4 3 5 4 3 5 5 5 5 6 6 5 4 5 7 14 19 24 26 26 26 24 21 23 23 22 21 19 20 19
4 4 4 4 4 4 5 4 4 5 5 5 5 6 7 7 5 5 13 16 19 23 25 26 27 25 25 25 23 22 21 20 19
4 4 4 4 4 4 4 5 5 5 5 6 6 7 7 7 8 6 7 14 16 18 25 24 25 27 27 26 25 23 23 22 21
4 4 4 4 4 5 4 5 4 4 5 6 7 6 7 7 8 8 7 8 11 16 21 23 24 23 28 28 25 24 23 23 22
4 4 4 4 4 4 3 5 8 8 8 8 8 7 7 9 9 8 7 5 5 10 15 18 21 21 21 25 26 25 23 23 23
4 3 4 5 4 4 4 7 8 7 7 8 9 8 7 7 7 7 8 6 6 6 10 12 20 10 12 14 21 19 24 24 23
4 4 5 4 4 4 4 7 4 5 6 8 9 7 6 5 5 6 5 6 8 9 9 2 5 6 10 8 9 17 15 25 21
4 3 4 4 4 5 6 5 6 4 3 5 8 3 4 4 4 4 4 5 7 8 6 2 2 3 9 13 10 2 6 11 9
4 4 4 4 4 5 5 5 5 3 5 3 2 5 6 5 4 2 4 6 4 5 2 2 2 2 3 3 3 11 10 11 16
5 5 4 4 3 4 4 4 5 6 6 10 2 4 3 6 4 6 6 6 6 5 8 8 7 6 4 5 6 0 8 10 18
5 5 4 4 3 4 3 4 3 3 6 6 1 3 3 3 5 4 6 6 6 7 5 6 6 6 6 9 10 14 16 7 2
6 5 5 5 3 3 4 4 4 2 2 3 5 6 3 4 2 3 3 3 5 6 6 6 6 7 6 6 9 15 14 12 10
Wind_Direction
355 353 348 347 343 329 313 315 303 285 278 276 267 255 241 199 200 203 211 209 234 231 230 225 227 223 210 216 206 200 195 193 187
357 1 2 356 351 351 333 313 311 302 277 274 274 263 241 208 196 206 211 221 229 234 240 230 224 224 220 222 214 210 208 205 199
355 358 356 358 356 357 358 352 342 338 323 286 268 266 242 226 207 205 208 222 232 243 229 227 223 223 221 218 217 214 213 202 200
359 358 352 351 350 353 352 353 352 349 337 329 298 258 251 216 209 211 212 227 229 237 229 226 215 219 223 213 217 217 211 210 206
6 4 354 350 344 346 343 344 347 349 346 342 336 280 248 235 215 215 209 221 230 234 230 233 220 215 214 217 214 218 217 216 210
8 358 360 360 359 354 349 344 341 344 342 340 341 337 280 237 225 221 224 226 229 231 234 237 228 219 213 212 219 220 217 214 216
358 352 359 1 359 354 354 349 346 341 322 320 330 319 315 277 249 227 230 235 234 233 231 231 237 222 219 211 212 218 219 216 217
351 346 344 339 349 339 342 339 333 328 328 324 317 312 311 297 287 255 239 244 244 243 237 231 231 227 216 216 213 213 217 217 218
342 340 330 337 324 326 329 316 312 320 317 306 300 297 288 280 285 278 251 253 256 251 247 238 231 224 218 216 215 212 213 217 220
326 332 333 334 332 330 328 319 317 314 307 299 290 287 282 278 275 277 271 254 257 255 252 247 237 229 221 219 216 214 210 211 216
341 338 334 327 333 328 320 324 314 306 302 296 282 274 276 273 270 265 265 257 251 257 257 245 244 237 229 220 218 214 213 211 211
340 328 323 321 321 317 319 306 312 313 317 296 291 277 266 267 268 267 266 258 244 250 259 248 239 241 234 229 220 220 215 213 213
329 324 319 321 318 305 305 342 344 338 330 317 301 288 276 268 265 266 268 257 256 255 257 252 241 229 236 235 225 222 218 217 216
325 324 314 326 312 310 338 349 344 332 324 315 301 288 278 280 279 269 270 259 262 259 239 236 247 240 219 250 229 250 229 215 214
325 322 323 325 322 313 335 339 325 306 298 301 297 289 281 265 249 262 277 267 259 259 262 238 214 214 200 165 220 261 274 224 216
322 313 323 327 326 322 334 322 311 304 314 305 323 305 294 306 299 257 260 262 263 258 239 222 196 211 158 159 122 350 309 305 295
301 311 308 316 324 332 337 344 331 295 339 316 313 331 328 338 349 5 34 356 347 14 37 120 157 49 25 31 171 180 199 277 259
290 292 289 306 325 316 322 326 351 329 328 334 287 335 313 320 326 1 32 37 29 31 45 51 54 62 63 65 64 321 38 307 261
271 274 280 286 296 305 309 326 319 328 321 322 247 233 251 320 328 5 8 27 38 32 41 46 48 47 48 46 48 53 50 34 354
271 263 270 275 281 282 295 315 322 293 293 327 325 321 284 231 277 313 342 32 28 30 31 30 36 37 36 40 38 50 54 58 65